| time (UTC) | temp F | wind direction | speed MPH | gust MPH | rain 1hr in | rain 24hr in | rain mn in | humidity % | barometer mb |
| 20260503193027 | 61 | 241 | 0.0 | 0.0 | 0.00 | 0.00 | 0.00 | 74 | 1019.4 |
| 20260503191515 | 61 | 250 | 0.0 | 0.0 | 0.00 | 0.00 | 0.00 | 74 | 1019.4 |
| 20260503190025 | 61 | 269 | 0.0 | 1.0 | 0.00 | 0.00 | 0.00 | 74 | 1019.4 |
| 20260503184518 | 62 | 259 | 0.0 | 0.0 | 0.00 | 0.00 | 0.00 | 73 | 1019.4 |
| 20260503183015 | 62 | 259 | 0.0 | 0.0 | 0.00 | 0.00 | 0.00 | 73 | 1019.5 |
| 20260503181506 | 63 | 259 | 0.0 | 0.0 | 0.00 | 0.00 | 0.00 | 72 | 1019.4 |
| 20260503180021 | 63 | 259 | 0.0 | 0.0 | 0.00 | 0.00 | 0.00 | 70 | 1019.4 |
| 20260503174518 | 64 | 259 | 0.0 | 0.0 | 0.00 | 0.00 | 0.00 | 69 | 1019.4 |
| 20260503173021 | 64 | 211 | 0.0 | 1.0 | 0.00 | 0.00 | 0.00 | 67 | 1019.5 |
| 20260503171508 | 65 | 119 | 0.0 | 0.0 | 0.00 | 0.00 | 0.00 | 66 | 1019.5 |
| 20260503081526 | 63 | 113 | 0.0 | 1.0 | 0.00 | 0.00 | 0.00 | 68 | 1022.0 |
| 20260503071532 | 62 | 88 | 1.0 | 3.0 | 0.00 | 0.00 | 0.00 | 70 | 1021.8 |
| 20260503054524 | 60 | 252 | 0.0 | 0.0 | 0.00 | 0.00 | 0.00 | 78 | 1021.5 |
| 20260503053004 | 58 | 252 | 0.0 | 0.0 | 0.00 | 0.00 | 0.00 | 82 | 1021.4 |
| 20260503051503 | 57 | 252 | 0.0 | 2.0 | 0.00 | 0.00 | 0.00 | 82 | 1021.3 |
| 20260503050003 | 56 | 252 | 1.0 | 3.0 | 0.00 | 0.00 | 0.00 | 81 | 1021.4 |
| 20260503044512 | 55 | 252 | 1.0 | 3.0 | 0.00 | 0.00 | 0.00 | 80 | 1021.4 |
| 20260503043010 | 55 | 252 | 2.0 | 3.0 | 0.00 | 0.00 | 0.00 | 79 | 1021.4 |
| 20260503041510 | 55 | 252 | 2.0 | 3.0 | 0.00 | 0.00 | 0.00 | 79 | 1021.3 |
| 20260503040005 | 55 | 252 | 2.0 | 3.0 | 0.00 | 0.00 | 0.00 | 77 | 1021.3 |
| 20260503034504 | 55 | 252 | 2.0 | 3.0 | 0.00 | 0.00 | 0.00 | 76 | 1021.3 |
| 20260503033006 | 54 | 252 | 2.0 | 3.0 | 0.00 | 0.00 | 0.00 | 74 | 1021.4 |
| 20260503031512 | 54 | 262 | 2.0 | 4.0 | 0.00 | 0.00 | 0.00 | 74 | 1021.4 |
| 20260503030019 | 55 | 250 | 2.0 | 4.0 | 0.00 | 0.00 | 0.00 | 73 | 1021.5 |
| 20260503024513 | 55 | 250 | 2.0 | 4.0 | 0.00 | 0.00 | 0.00 | 73 | 1021.5 |
| 20260503023003 | 55 | 257 | 2.0 | 4.0 | 0.00 | 0.00 | 0.00 | 72 | 1021.6 |
| 20260503021513 | 55 | 257 | 2.0 | 4.0 | 0.00 | 0.00 | 0.00 | 72 | 1021.6 |
| 20260503020006 | 55 | 225 | 3.0 | 4.0 | 0.00 | 0.00 | 0.00 | 72 | 1021.7 |
| 20260503014520 | 55 | 252 | 2.0 | 4.0 | 0.00 | 0.00 | 0.00 | 71 | 1021.6 |
| 20260503013022 | 55 | 250 | 2.0 | 4.0 | 0.00 | 0.00 | 0.00 | 71 | 1021.6 |
| 20260503011509 | 55 | 257 | 3.0 | 4.0 | 0.00 | 0.00 | 0.00 | 69 | 1021.7 |
| 20260503010009 | 55 | 248 | 2.0 | 4.0 | 0.00 | 0.00 | 0.00 | 69 | 1021.7 |
| 20260503004538 | 56 | 242 | 3.0 | 4.0 | 0.00 | 0.00 | 0.00 | 67 | 1021.8 |
| 20260503003025 | 56 | 242 | 2.0 | 4.0 | 0.00 | 0.00 | 0.00 | 67 | 1022.0 |
| 20260503001546 | 56 | 242 | 2.0 | 4.0 | 0.00 | 0.00 | 0.00 | 67 | 1022.1 |
| 20260503000010 | 56 | 244 | 2.0 | 4.0 | 0.00 | 0.00 | 0.00 | 67 | 1022.1 |
| 20260502234511 | 56 | 250 | 2.0 | 4.0 | 0.00 | 0.00 | 0.00 | 67 | 1022.2 |
| 20260502233026 | 56 | 251 | 2.0 | 4.0 | 0.00 | 0.00 | 0.00 | 67 | 1022.3 |
| 20260502231514 | 56 | 241 | 3.0 | 6.0 | 0.00 | 0.00 | 0.00 | 66 | 1022.5 |
| 20260502230011 | 56 | 244 | 2.0 | 4.0 | 0.00 | 0.00 | 0.00 | 66 | 1022.5 |
| 20260502224526 | 57 | 242 | 2.0 | 4.0 | 0.00 | 0.00 | 0.00 | 66 | 1022.5 |
| 20260502223017 | 57 | 251 | 2.0 | 4.0 | 0.00 | 0.00 | 0.00 | 66 | 1022.5 |
| 20260502221520 | 57 | 250 | 2.0 | 4.0 | 0.00 | 0.00 | 0.00 | 65 | 1022.6 |
| 20260502220029 | 57 | 252 | 2.0 | 4.0 | 0.00 | 0.00 | 0.00 | 65 | 1022.6 |
| 20260502214518 | 57 | 247 | 2.0 | 4.0 | 0.00 | 0.00 | 0.00 | 65 | 1022.6 |
| 20260502213021 | 58 | 240 | 2.0 | 4.0 | 0.00 | 0.00 | 0.00 | 64 | 1022.6 |
| 20260502211518 | 58 | 248 | 2.0 | 4.0 | 0.00 | 0.00 | 0.00 | 60 | 1022.7 |
| 20260502210005 | 58 | 248 | 2.0 | 4.0 | 0.00 | 0.00 | 0.00 | 57 | 1022.8 |
| 20260502204509 | 58 | 242 | 2.0 | 3.0 | 0.00 | 0.00 | 0.00 | 56 | 1022.9 |
| 20260502203004 | 58 | 252 | 2.0 | 4.0 | 0.00 | 0.00 | 0.00 | 55 | 1022.8 |
| 20260502201504 | 59 | 242 | 2.0 | 4.0 | 0.00 | 0.00 | 0.00 | 54 | 1023.0 |
| 20260502200003 | 59 | 243 | 2.0 | 4.0 | 0.00 | 0.00 | 0.00 | 54 | 1022.9 |
| 20260502194503 | 59 | 246 | 2.0 | 4.0 | 0.00 | 0.00 | 0.00 | 53 | 1022.8 |